Location: Bovenkerk
(52.2915°N, 4.8336°E)
Time: 11:04:00
(UTC+00:00)

IGS 5A - Pass Details

Date: 09 April 2020
Orbit: 585 x 587 km, 97.6° (Epoch: 19 May)

Event Time Altitude Azimuth Distance (km) Brightness Sun altitude
Exits shadow 20:20:36 31° 130° (SE) 1,049 4.1 -16.0°
Maximum altitude 20:22:18 52° 70° (ENE) 736 3.7 -16.3°
Drops below altitude 10° 20:26:21 10° 355° (N) 1,923 6.7 -16.7°
Sets 20:28:33 0° 350° (N) 2,828 7.7 -17.0°
